Location: Courçay
(47.2523°N, 0.8761°E)
Time: 21:37:55
(UTC+00:00)

Timation 2 Rocket - Pass Details

Date: 18 November 2025
Orbit: 904 x 1074 km, 70.0° (Epoch: 10 December)

Event Time Altitude Azimuth Distance (km) Brightness Sun altitude
Rises 17:20:56 0° 201° (SSW) 3,839 7.7 -10.7°
Reaches altitude 10° 17:23:32 10° 200° (SSW) 2,896 7.0 -11.1°
Maximum altitude 17:30:23 78° 115° (ESE) 1,102 4.2 -12.2°
Drops below altitude 10° 17:37:13 10° 31° (NNE) 2,897 6.1 -13.4°
Enters shadow 17:38:22 - 31° (NNE) 3,308 6.4 -13.6°
